TimeICT,TemperatureF,Dew PointF,Humidity,Sea Level PressureIn,VisibilityMPH,Wind Direction,Wind SpeedMPH,Gust SpeedMPH,PrecipitationIn,Events,Conditions,WindDirDegrees,DateUTC
12:00 AM,84.2,77.0,79,29.74,5.6,South,4.6,-,N/A,,Partly Cloudy,180,2013-05-17 17:00:00
12:30 AM,84.2,77.0,79,29.71,5.6,SSE,2.3,-,N/A,,Scattered Clouds,160,2013-05-17 17:30:00
1:00 AM,82.4,77.0,84,29.71,5.6,SSW,4.6,-,N/A,,Scattered Clouds,200,2013-05-17 18:00:00
6:30 AM,82.4,78.8,89,29.77,5.6,ESE,8.1,-,N/A,,Mostly Cloudy,120,2013-05-17 23:30:00
7:00 AM,,,,,,Calm,Calm,,,,,,2013-05-18 00:00:00
7:00 AM,82.4,77.0,84,29.80,5.6,East,8.1,-,N/A,,Mostly Cloudy,100,2013-05-18 00:00:00
7:30 AM,82.4,77.0,84,29.80,5.6,East,12.7,-,N/A,,Mostly Cloudy,100,2013-05-18 00:30:00
8:00 AM,82.4,77.0,84,29.80,5.6,East,15.0,-,N/A,,Mostly Cloudy,80,2013-05-18 01:00:00
8:30 AM,82.4,73.4,74,29.83,5.0,ENE,17.3,28.8,N/A,,Mostly Cloudy,60,2013-05-18 01:30:00
9:00 AM,80.6,71.6,74,29.83,5.0,ENE,17.3,-,N/A,,Mostly Cloudy,70,2013-05-18 02:00:00
9:30 AM,78.8,73.4,83,29.83,5.6,East,11.5,-,N/A,,Mostly Cloudy,100,2013-05-18 02:30:00
10:00 AM,82.4,73.4,74,29.83,5.6,East,11.5,-,N/A,,Mostly Cloudy,90,2013-05-18 03:00:00
10:30 AM,82.4,73.4,74,29.83,5.6,NE,8.1,-,N/A,,Mostly Cloudy,50,2013-05-18 03:30:00
11:00 AM,84.2,71.6,66,29.80,6.2,ENE,8.1,-,N/A,,Scattered Clouds,70,2013-05-18 04:00:00
11:30 AM,87.8,71.6,58,29.80,6.2,East,2.3,-,N/A,,Scattered Clouds,90,2013-05-18 04:30:00
12:00 PM,91.4,71.6,52,29.77,6.2,ESE,4.6,-,N/A,,Scattered Clouds,110,2013-05-18 05:00:00
12:30 PM,91.4,69.8,49,29.74,6.2,ENE,4.6,-,N/A,,Scattered Clouds,60,2013-05-18 05:30:00
1:00 PM,93.2,71.6,49,29.71,6.2,SSW,6.9,-,N/A,,Scattered Clouds,200,2013-05-18 06:00:00
1:30 PM,93.2,71.6,49,29.68,6.2,SSW,6.9,-,N/A,,Scattered Clouds,210,2013-05-18 06:30:00
2:00 PM,95.0,71.6,47,29.68,6.2,South,5.8,-,N/A,,Scattered Clouds,180,2013-05-18 07:00:00
2:30 PM,95.0,71.6,47,29.65,6.2,South,9.2,-,N/A,,Scattered Clouds,170,2013-05-18 07:30:00
3:00 PM,93.2,73.4,52,29.65,6.2,South,11.5,-,N/A,,Scattered Clouds,170,2013-05-18 08:00:00
3:30 PM,93.2,73.4,52,29.65,6.2,SSE,11.5,-,N/A,,Scattered Clouds,160,2013-05-18 08:30:00
4:00 PM,93.2,73.4,52,29.65,6.2,South,9.2,-,N/A,,Scattered Clouds,180,2013-05-18 09:00:00
4:30 PM,93.2,73.4,52,29.65,6.2,SSW,9.2,-,N/A,,Scattered Clouds,200,2013-05-18 09:30:00
5:00 PM,93.2,73.4,52,29.65,6.2,South,9.2,-,N/A,,Scattered Clouds,170,2013-05-18 10:00:00
5:30 PM,91.4,71.6,52,29.65,5.6,SSE,3.5,-,N/A,,Scattered Clouds,150,2013-05-18 10:30:00
6:00 PM,91.4,73.4,55,29.65,5.6,SSE,3.5,-,N/A,,Scattered Clouds,150,2013-05-18 11:00:00
6:30 PM,87.8,75.2,66,29.65,5.6,SW,8.1,-,N/A,,Scattered Clouds,230,2013-05-18 11:30:00
7:00 PM,86.0,75.2,70,29.68,5.6,WSW,3.5,-,N/A,,Partly Cloudy,240,2013-05-18 12:00:00
7:30 PM,86.0,75.2,70,29.71,5.6,Variable,2.3,-,N/A,,Partly Cloudy,0,2013-05-18 12:30:00
8:00 PM,86.0,75.2,70,29.71,5.6,Variable,3.5,-,N/A,,Partly Cloudy,0,2013-05-18 13:00:00
8:30 PM,86.0,75.2,70,29.74,5.6,SW,4.6,-,N/A,,Partly Cloudy,220,2013-05-18 13:30:00
9:00 PM,86.0,75.2,70,29.74,5.6,WSW,6.9,-,N/A,Rain,Light Rain,250,2013-05-18 14:00:00
9:30 PM,84.2,75.2,74,29.74,5.6,WSW,8.1,-,N/A,Rain,Light Rain,240,2013-05-18 14:30:00
10:00 PM,84.2,77.0,79,29.77,5.6,West,4.6,-,N/A,,Partly Cloudy,260,2013-05-18 15:00:00
10:30 PM,84.2,75.2,74,29.77,5.6,NW,9.2,-,N/A,,Partly Cloudy,310,2013-05-18 15:30:00
11:00 PM,84.2,77.0,79,29.77,5.6,NW,9.2,-,N/A,,Partly Cloudy,310,2013-05-18 16:00:00
11:30 PM,82.4,77.0,84,29.77,5.6,NW,5.8,-,N/A,,Partly Cloudy,320,2013-05-18 16:30:00